Location: *
(38.9555°S, 57.3572°E)
Time: 00:43:10
(UTC+00:00)

SJ 16-02 - Pass Details

Date: 15 July 2020
Orbit: 606 x 617 km, 75.0° (Epoch: 06 August)

Event Time Altitude Azimuth Distance (km) Brightness Sun altitude
Rises 15:58:48 0° 297° (WNW) 2,869 5.7 -32.8°
Reaches altitude 10° 16:02:06 10° 270° (W) 1,975 4.8 -33.4°
Maximum altitude 16:04:21 14° 240° (WSW) 1,746 4.2 -33.8°
Enters shadow 16:05:43 12° 220° (SW) 1,838 4.1 -34.1°
